SAA204 GOBD-FAOR

Flight info

Callsign SAA204
Flight time N/A
Altitude 35000
Route ERIDI1B ERIDI UR979 ARLIX/N0485F370 UR979 AD UA400 VNA/N0478F390 UN187 ARGOL UT942 UTVIN UM998 XOXAM UL435 ETOSA UZ10 PEDIL UQ19 AVAGO AVAGO1C
Aircraft A346/H-SDE2E3FGHIJ3J4J5M1RWXY/LB1D1

Departure

Time 2026-05-09 12:49
Airport Blaise Diagne International Airport (GOBD)

Arrival

Time N/A
Airport O.R. Tambo International Airport (FAOR)
Time Latitude Longitude Altitude Speed Heading
2026-05-09 12:23 14.67079 -17.06863 300 ft 0 kts 89°
2026-05-09 12:39 14.67079 -17.06872 300 ft 3 kts 91°
2026-05-09 12:39 14.67080 -17.06892 301 ft 3 kts 99°
2026-05-09 12:39 14.67085 -17.06911 301 ft 3 kts 112°
2026-05-09 12:39 14.67093 -17.06927 302 ft 3 kts 133°
2026-05-09 12:40 14.67102 -17.06934 302 ft 3 kts 165°
2026-05-09 12:40 14.67102 -17.06936 302 ft 3 kts 202°
2026-05-09 12:40 14.67097 -17.06941 303 ft 0 kts 230°
2026-05-09 12:44 14.67097 -17.06942 303 ft 1 kts 230°
2026-05-09 12:44 14.67091 -17.06951 303 ft 2 kts 248°
2026-05-09 12:44 14.67084 -17.06974 304 ft 5 kts 256°
2026-05-09 12:44 14.67078 -17.07027 304 ft 10 kts 266°
2026-05-09 12:45 14.67036 -17.07087 307 ft 11 kts 202°
2026-05-09 12:45 14.66943 -17.07090 306 ft 15 kts 179°
2026-05-09 12:45 14.66829 -17.07089 303 ft 17 kts 179°
2026-05-09 12:45 14.66698 -17.07087 303 ft 20 kts 179°
2026-05-09 12:46 14.66549 -17.07086 302 ft 23 kts 179°
2026-05-09 12:46 14.66385 -17.07084 302 ft 25 kts 179°
2026-05-09 12:46 14.66209 -17.07082 302 ft 26 kts 180°
2026-05-09 12:46 14.66018 -17.07081 296 ft 28 kts 180°
2026-05-09 12:47 14.65833 -17.07080 296 ft 23 kts 179°
2026-05-09 12:47 14.65711 -17.07078 291 ft 14 kts 179°
2026-05-09 12:47 14.65602 -17.07076 293 ft 17 kts 179°
2026-05-09 12:47 14.65535 -17.07121 287 ft 13 kts 251°
2026-05-09 12:48 14.65530 -17.07219 287 ft 14 kts 275°
2026-05-09 12:48 14.65595 -17.07267 288 ft 13 kts 358°
2026-05-09 12:48 14.65739 -17.07267 291 ft 41 kts
2026-05-09 12:48 14.66231 -17.07273 297 ft 98 kts 359°
2026-05-09 12:49 14.67084 -17.07281 307 ft 146 kts 360°
2026-05-09 12:49 14.68229 -17.07289 425 ft 173 kts 359°
2026-05-09 12:49 14.69409 -17.07304 1044 ft 166 kts
2026-05-09 12:49 14.70548 -17.07337 1588 ft 163 kts
2026-05-09 12:50 14.71673 -17.07373 2079 ft 159 kts
2026-05-09 12:50 14.72777 -17.07382 2445 ft 160 kts
2026-05-09 12:50 14.73901 -17.07374 2673 ft 168 kts
2026-05-09 12:50 14.75104 -17.07382 2909 ft 177 kts
2026-05-09 12:51 14.76350 -17.07401 3266 ft 180 kts
2026-05-09 12:51 14.77616 -17.07417 3549 ft 186 kts
2026-05-09 12:51 14.78953 -17.07429 3768 ft 198 kts
2026-05-09 12:51 14.80351 -17.07288 3994 ft 208 kts 22°
2026-05-09 12:52 14.81555 -17.06429 4209 ft 218 kts 50°
2026-05-09 12:52 14.82223 -17.04973 4399 ft 235 kts 80°
2026-05-09 12:52 14.82290 -17.03228 4687 ft 251 kts 87°
2026-05-09 12:52 14.82304 -17.01371 5005 ft 264 kts 87°
2026-05-09 12:53 14.82323 -16.99465 5593 ft 267 kts 88°
2026-05-09 12:53 14.82344 -16.97536 6273 ft 268 kts 89°
2026-05-09 12:53 14.82359 -16.95602 6899 ft 269 kts 89°
2026-05-09 12:53 14.82374 -16.93655 7536 ft 270 kts 89°
2026-05-09 12:54 14.82389 -16.91732 8179 ft 272 kts 89°
2026-05-09 12:54 14.82405 -16.89764 8792 ft 275 kts 90°
2026-05-09 12:54 14.82355 -16.87782 9401 ft 277 kts 97°
2026-05-09 12:54 14.81951 -16.85833 10025 ft 278 kts 108°
2026-05-09 12:55 14.81227 -16.83955 10459 ft 286 kts 113°
2026-05-09 12:55 14.80398 -16.82023 10733 ft 301 kts 114°
2026-05-09 12:55 14.79516 -16.79996 10955 ft 317 kts 114°
2026-05-09 12:55 14.78579 -16.77837 10990 ft 340 kts 114°
2026-05-09 12:56 14.77581 -16.75535 11074 ft 359 kts 114°
2026-05-09 12:56 14.76545 -16.73141 11428 ft 368 kts 114°
2026-05-09 12:56 14.75492 -16.70704 11971 ft 373 kts 114°
2026-05-09 12:56 14.74429 -16.68247 12552 ft 376 kts 114°
2026-05-09 12:57 14.73354 -16.65758 13104 ft 381 kts 114°
2026-05-09 12:57 14.72266 -16.63239 13700 ft 384 kts 114°
2026-05-09 12:57 14.71169 -16.60703 14197 ft 389 kts 114°
2026-05-09 12:57 14.70068 -16.58165 14668 ft 394 kts 114°
2026-05-09 12:58 14.68940 -16.55559 15183 ft 397 kts 114°
2026-05-09 12:58 14.67808 -16.52947 15740 ft 399 kts 114°
2026-05-09 12:58 14.66666 -16.50312 16239 ft 403 kts 114°
2026-05-09 12:58 14.65515 -16.47650 16695 ft 407 kts 114°
2026-05-09 12:59 14.64351 -16.44961 17145 ft 412 kts 114°
2026-05-09 12:59 14.63166 -16.42250 17653 ft 415 kts 116°
2026-05-09 12:59 14.61708 -16.39666 18131 ft 417 kts 125°
2026-05-09 12:59 14.59883 -16.37317 18526 ft 421 kts 133°
2026-05-09 13:00 14.57744 -16.35223 18879 ft 426 kts 139°
2026-05-09 13:00 14.55502 -16.33212 19310 ft 427 kts 140°
2026-05-09 13:00 14.53238 -16.31210 19722 ft 430 kts 140°
2026-05-09 13:00 14.50950 -16.29189 20096 ft 434 kts 140°
2026-05-09 13:01 14.48647 -16.27154 20437 ft 438 kts 140°
2026-05-09 13:01 14.46325 -16.25097 20815 ft 441 kts 140°
2026-05-09 13:01 14.43989 -16.23024 21193 ft 444 kts 141°
2026-05-09 13:01 14.41635 -16.20933 21584 ft 447 kts 141°
2026-05-09 13:02 14.39298 -16.18858 21953 ft 450 kts 141°
2026-05-09 13:02 14.36885 -16.16715 22330 ft 453 kts 141°
2026-05-09 13:02 14.34514 -16.14611 22718 ft 456 kts 141°
2026-05-09 13:02 14.32106 -16.12475 23111 ft 457 kts 141°
2026-05-09 13:03 14.29684 -16.10325 23485 ft 460 kts 141°
2026-05-09 13:03 14.27253 -16.08168 23784 ft 462 kts 141°
2026-05-09 13:03 14.24802 -16.05995 24081 ft 465 kts 141°
2026-05-09 13:03 14.22343 -16.03815 24363 ft 467 kts 141°
2026-05-09 13:04 14.19871 -16.01624 24652 ft 470 kts 141°
2026-05-09 13:04 14.17383 -15.99419 24937 ft 472 kts 141°
2026-05-09 13:04 14.14883 -15.97206 25212 ft 475 kts 141°
2026-05-09 13:04 14.12369 -15.94979 25492 ft 477 kts 141°
2026-05-09 13:05 14.09844 -15.92744 25759 ft 479 kts 141°
2026-05-09 13:05 14.07307 -15.90498 26039 ft 481 kts 142°
2026-05-09 13:05 14.04759 -15.88242 26310 ft 484 kts 142°
2026-05-09 13:05 14.02194 -15.85974 26592 ft 486 kts 142°
2026-05-09 13:06 13.99649 -15.83723 26840 ft 488 kts 142°
2026-05-09 13:06 13.97064 -15.81437 27102 ft 490 kts 142°
2026-05-09 13:06 13.94468 -15.79143 27358 ft 493 kts 142°
2026-05-09 13:06 13.91856 -15.76836 27614 ft 495 kts 142°
2026-05-09 13:07 13.89237 -15.74523 27860 ft 497 kts 142°
2026-05-09 13:07 13.86604 -15.72198 28114 ft 499 kts 142°
2026-05-09 13:07 13.83961 -15.69865 28361 ft 500 kts 142°
2026-05-09 13:07 13.81318 -15.67532 28712 ft 500 kts 142°
2026-05-09 13:08 13.78679 -15.65203 29083 ft 499 kts 142°
2026-05-09 13:08 13.76043 -15.62877 29434 ft 498 kts 142°
2026-05-09 13:08 13.73409 -15.60556 29778 ft 498 kts 142°
2026-05-09 13:08 13.70779 -15.58237 30083 ft 497 kts 142°
2026-05-09 13:09 13.68154 -15.55927 30374 ft 497 kts 142°
2026-05-09 13:09 13.65566 -15.53648 30687 ft 495 kts 142°
2026-05-09 13:09 13.62949 -15.51343 31024 ft 494 kts 142°
2026-05-09 13:09 13.60341 -15.49046 31363 ft 492 kts 142°
2026-05-09 13:10 13.57745 -15.46761 31717 ft 490 kts 142°
2026-05-09 13:10 13.55158 -15.44485 32063 ft 489 kts 142°
2026-05-09 13:10 13.52577 -15.42215 32415 ft 487 kts 142°
2026-05-09 13:10 13.50003 -15.39951 32762 ft 485 kts 142°
2026-05-09 13:11 13.47444 -15.37702 33109 ft 484 kts 142°
2026-05-09 13:11 13.44885 -15.35453 33429 ft 483 kts 142°
2026-05-09 13:11 13.42329 -15.33208 33712 ft 483 kts 142°
2026-05-09 13:11 13.39767 -15.30958 33961 ft 484 kts 142°
2026-05-09 13:12 13.37204 -15.28709 34169 ft 485 kts 142°
2026-05-09 13:12 13.34640 -15.26458 34365 ft 486 kts 142°
2026-05-09 13:12 13.32065 -15.24199 34561 ft 487 kts 142°
2026-05-09 13:12 13.29488 -15.21938 34769 ft 487 kts 142°
2026-05-09 13:13 13.26904 -15.19671 34920 ft 488 kts 142°
2026-05-09 13:13 13.21902 -15.14993 34930 ft 491 kts 137°
2026-05-09 13:14 13.17325 -15.09752 34929 ft 493 kts 131°
2026-05-09 13:16 13.02188 -14.87543 34948 ft 494 kts 127°
2026-05-09 13:16 12.98281 -14.81736 34948 ft 493 kts 127°
2026-05-09 13:17 12.94376 -14.75938 34947 ft 493 kts 127°
2026-05-09 13:17 12.90471 -14.70144 34942 ft 493 kts 127°
2026-05-09 13:18 12.86563 -14.64350 34935 ft 493 kts 127°
2026-05-09 13:18 12.82654 -14.58558 34933 ft 493 kts 127°
2026-05-09 13:19 12.78738 -14.52761 34941 ft 494 kts 127°
2026-05-09 13:19 12.74823 -14.46964 34941 ft 494 kts 127°
2026-05-09 13:20 12.70928 -14.41212 34940 ft 493 kts 127°
2026-05-09 13:20 12.67018 -14.35435 34940 ft 492 kts 127°
2026-05-09 13:21 12.63111 -14.29664 34944 ft 492 kts 127°
2026-05-09 13:21 12.59200 -14.23892 34945 ft 492 kts 127°
2026-05-09 13:22 12.55289 -14.18125 34939 ft 492 kts 127°
2026-05-09 13:22 12.51380 -14.12362 34943 ft 492 kts 127°
2026-05-09 13:23 12.41602 -13.97962 34941 ft 492 kts 127°
2026-05-09 13:24 12.37720 -13.92255 34941 ft 490 kts 127°
2026-05-09 13:24 12.33824 -13.86525 34944 ft 489 kts 127°
2026-05-09 13:25 12.29929 -13.80804 34941 ft 489 kts 127°
2026-05-09 13:26 12.23844 -13.72429 34936 ft 488 kts 130°
2026-05-09 13:26 12.19574 -13.67030 34936 ft 488 kts 130°
2026-05-09 13:27 12.15304 -13.61637 34940 ft 488 kts 130°
2026-05-09 13:27 12.11024 -13.56230 34940 ft 488 kts 130°
2026-05-09 13:28 12.06778 -13.50867 34937 ft 488 kts 130°
2026-05-09 13:28 12.02506 -13.45481 34938 ft 487 kts 130°
2026-05-09 13:29 11.98241 -13.40094 34936 ft 487 kts 130°
2026-05-09 13:29 11.93977 -13.34714 34935 ft 487 kts 130°
2026-05-09 13:30 11.89709 -13.29334 34933 ft 487 kts 130°
2026-05-09 13:30 11.85444 -13.23960 34936 ft 487 kts 130°
2026-05-09 13:31 11.81176 -13.18587 34939 ft 487 kts 130°
2026-05-09 13:31 11.77041 -13.13106 34936 ft 487 kts 126°
2026-05-09 13:32 11.73157 -13.07402 34945 ft 489 kts 126°
2026-05-09 13:32 11.67373 -12.98875 34948 ft 488 kts 126°
2026-05-09 13:33 11.63496 -12.93166 34947 ft 488 kts 126°
2026-05-09 13:33 11.59619 -12.87462 34963 ft 488 kts 126°
2026-05-09 13:34 11.55742 -12.81762 34963 ft 488 kts 126°
2026-05-09 13:34 11.51856 -12.76052 34971 ft 488 kts 126°
2026-05-09 13:35 11.48001 -12.70391 34970 ft 487 kts 126°
2026-05-09 13:35 11.44130 -12.64710 34982 ft 487 kts 126°
2026-05-09 13:36 11.40256 -12.59028 34986 ft 487 kts 126°
2026-05-09 13:36 11.36397 -12.53376 34987 ft 484 kts 125°
2026-05-09 13:37 11.32553 -12.47739 34996 ft 483 kts 125°
2026-05-09 13:37 11.28709 -12.42107 34995 ft 483 kts 125°
2026-05-09 13:38 11.24873 -12.36497 34991 ft 480 kts 126°
2026-05-09 13:38 11.20970 -12.30977 34992 ft 479 kts 126°
2026-05-09 13:39 11.17040 -12.25484 34994 ft 479 kts 126°
2026-05-09 13:39 11.13113 -12.19985 34995 ft 479 kts 126°
2026-05-09 13:40 11.09219 -12.14526 34990 ft 479 kts 126°
2026-05-09 13:40 11.05292 -12.09024 34992 ft 479 kts 126°
2026-05-09 13:41 11.01376 -12.03541 34984 ft 477 kts 126°
2026-05-09 13:41 10.97476 -11.98075 34984 ft 477 kts 126°
2026-05-09 13:42 10.93566 -11.92600 34982 ft 478 kts 126°
2026-05-09 13:42 10.89654 -11.87124 34977 ft 478 kts 126°
2026-05-09 13:43 10.85762 -11.81681 34980 ft 478 kts 126°
2026-05-09 13:43 10.81845 -11.76205 34980 ft 478 kts 126°
2026-05-09 13:44 10.77933 -11.70739 34982 ft 478 kts 126°
2026-05-09 13:44 10.74013 -11.65265 34982 ft 478 kts 126°
2026-05-09 13:45 10.70097 -11.59796 34980 ft 478 kts 126°
2026-05-09 13:45 10.66174 -11.54333 34979 ft 477 kts 126°
2026-05-09 13:46 10.62135 -11.48969 34980 ft 478 kts 127°
2026-05-09 13:46 10.58062 -11.43617 34981 ft 477 kts 127°
2026-05-09 13:47 10.53997 -11.38258 34981 ft 477 kts 127°
2026-05-09 13:47 10.49942 -11.32906 34983 ft 478 kts 127°
2026-05-09 13:48 10.45910 -11.27585 34980 ft 478 kts 127°
2026-05-09 13:48 10.41854 -11.22231 34981 ft 478 kts 127°
2026-05-09 13:49 10.37798 -11.16878 34980 ft 478 kts 127°
2026-05-09 13:49 10.33736 -11.11524 34980 ft 478 kts 127°
2026-05-09 13:50 10.29676 -11.06170 34976 ft 478 kts 127°
2026-05-09 13:50 10.25653 -11.00793 34974 ft 478 kts 125°
2026-05-09 13:51 10.22035 -10.95133 34971 ft 477 kts 121°
2026-05-09 13:51 10.18539 -10.89364 34968 ft 481 kts 121°
2026-05-09 13:52 10.15030 -10.83571 34967 ft 482 kts 121°
2026-05-09 13:52 10.11507 -10.77763 34967 ft 482 kts 121°
2026-05-09 13:53 10.07887 -10.72092 34964 ft 482 kts 125°
2026-05-09 13:53 10.03964 -10.66556 34965 ft 482 kts 125°
2026-05-09 13:54 10.00049 -10.61053 34963 ft 478 kts 125°
2026-05-09 13:54 9.96154 -10.55576 34960 ft 479 kts 125°
2026-05-09 13:55 9.92245 -10.50080 34962 ft 480 kts 125°
2026-05-09 13:55 9.88324 -10.44569 34961 ft 480 kts 125°
2026-05-09 13:56 9.84402 -10.39059 34962 ft 481 kts 125°
2026-05-09 13:56 9.80505 -10.33586 34964 ft 481 kts 125°
2026-05-09 13:57 9.76587 -10.28087 34964 ft 480 kts 125°
2026-05-09 13:57 9.72671 -10.22591 34966 ft 480 kts 125°
2026-05-09 13:58 9.68749 -10.17094 34961 ft 480 kts 125°
2026-05-09 13:58 9.64831 -10.11603 34968 ft 480 kts 124°
2026-05-09 13:59 9.60941 -10.06144 34968 ft 480 kts 124°
2026-05-09 13:59 9.56992 -10.00630 34967 ft 480 kts 125°
2026-05-09 14:00 9.54382 -9.96995 34971 ft 480 kts 125°
2026-05-09 14:00 9.49155 -9.89713 34976 ft 480 kts 125°
2026-05-09 14:01 9.45224 -9.84238 34973 ft 480 kts 125°
2026-05-09 14:01 9.41286 -9.78751 34975 ft 481 kts 125°
2026-05-09 14:02 9.37986 -9.74160 34978 ft 481 kts 125°
2026-05-09 14:02 9.34068 -9.68711 34978 ft 481 kts 125°
2026-05-09 14:03 9.30123 -9.63225 34978 ft 481 kts 125°
2026-05-09 14:03 9.26178 -9.57742 34978 ft 481 kts 125°
2026-05-09 14:04 9.22236 -9.52265 34985 ft 481 kts 125°
2026-05-09 14:04 9.18294 -9.46790 34985 ft 481 kts 125°
2026-05-09 14:05 9.14347 -9.41304 34985 ft 482 kts 126°
2026-05-09 14:05 9.10385 -9.35809 34983 ft 482 kts 126°
2026-05-09 14:06 9.06427 -9.30322 34983 ft 482 kts 126°
2026-05-09 14:06 9.02529 -9.24789 34983 ft 482 kts 124°
2026-05-09 14:07 8.98731 -9.19183 34979 ft 482 kts 124°
2026-05-09 14:07 8.94957 -9.13619 34979 ft 480 kts 124°
2026-05-09 14:08 8.91174 -9.08058 34972 ft 479 kts 124°
2026-05-09 14:08 8.87387 -9.02499 34973 ft 480 kts 124°
2026-05-09 14:09 8.83587 -8.96932 34972 ft 480 kts 124°
2026-05-09 14:09 8.79786 -8.91363 34970 ft 480 kts 124°
2026-05-09 14:10 8.74089 -8.83020 34970 ft 480 kts 124°
2026-05-09 14:11 8.70314 -8.77495 34972 ft 480 kts 124°
2026-05-09 14:11 8.66514 -8.71936 34971 ft 480 kts 124°
2026-05-09 14:12 8.62715 -8.66378 34974 ft 480 kts 124°
2026-05-09 14:12 8.58896 -8.60803 34970 ft 484 kts 124°
2026-05-09 14:13 8.55067 -8.55204 34965 ft 484 kts 124°
2026-05-09 14:15 8.39705 -8.32773 34961 ft 485 kts 124°
2026-05-09 14:15 8.35858 -8.27164 34962 ft 485 kts 124°
2026-05-09 14:16 8.32040 -8.21588 34960 ft 485 kts 124°
2026-05-09 14:16 8.28194 -8.15969 34956 ft 486 kts 124°
2026-05-09 14:17 8.24353 -8.10358 34956 ft 484 kts 124°
2026-05-09 14:17 8.20525 -8.04769 34956 ft 483 kts 124°
2026-05-09 14:18 8.16698 -7.99186 34952 ft 483 kts 124°
2026-05-09 14:18 8.12868 -7.93599 34953 ft 483 kts 124°
2026-05-09 14:19 8.09038 -7.88016 34952 ft 483 kts 124°
2026-05-09 14:19 8.05235 -7.82472 34953 ft 484 kts 124°
2026-05-09 14:20 8.01402 -7.76888 34951 ft 483 kts 124°
2026-05-09 14:20 7.97568 -7.71303 34950 ft 483 kts 124°
2026-05-09 14:21 7.91819 -7.62934 34957 ft 483 kts 124°
2026-05-09 14:21 7.87987 -7.57356 34956 ft 483 kts 124°
2026-05-09 14:22 7.84153 -7.51780 34952 ft 483 kts 124°
2026-05-09 14:22 7.80312 -7.46196 34959 ft 483 kts 124°
2026-05-09 14:23 7.76474 -7.40618 34954 ft 483 kts 124°
2026-05-09 14:23 7.72638 -7.35045 34952 ft 483 kts 124°
2026-05-09 14:24 7.68797 -7.29467 34954 ft 484 kts 124°
2026-05-09 14:24 7.64957 -7.23892 34947 ft 483 kts 124°
2026-05-09 14:25 7.61148 -7.18360 34948 ft 481 kts 125°
2026-05-09 14:25 7.57328 -7.12820 34942 ft 481 kts 125°
2026-05-09 14:26 7.53505 -7.07277 34943 ft 481 kts 125°
2026-05-09 14:26 7.49676 -7.01728 34940 ft 483 kts 124°
2026-05-09 14:27 7.45840 -6.96168 34937 ft 483 kts 124°
2026-05-09 14:27 7.41998 -6.90602 34937 ft 483 kts 124°
2026-05-09 14:28 7.38155 -6.85036 34936 ft 483 kts 124°
2026-05-09 14:28 7.34321 -6.79490 34937 ft 481 kts 124°
2026-05-09 14:29 7.30526 -6.73996 34937 ft 480 kts 124°
2026-05-09 14:29 7.26706 -6.68468 34938 ft 480 kts 124°
2026-05-09 14:30 7.22885 -6.62942 34939 ft 480 kts 124°
2026-05-09 14:30 7.19064 -6.57418 34940 ft 480 kts 124°
2026-05-09 14:31 7.15239 -6.51890 34941 ft 480 kts 124°
2026-05-09 14:31 7.11439 -6.46400 34940 ft 480 kts 124°
2026-05-09 14:32 7.07605 -6.40866 34938 ft 482 kts 124°
2026-05-09 14:32 7.03768 -6.35324 34940 ft 482 kts 124°
2026-05-09 14:33 6.99924 -6.29775 34939 ft 482 kts 124°
2026-05-09 14:33 6.96079 -6.24228 34940 ft 482 kts 124°
2026-05-09 14:34 6.92239 -6.18688 34940 ft 482 kts 124°
2026-05-09 14:34 6.88422 -6.13183 34940 ft 482 kts 124°
2026-05-09 14:35 6.84579 -6.07644 34939 ft 483 kts 124°
2026-05-09 14:35 6.80719 -6.02081 34940 ft 485 kts 124°
2026-05-09 14:36 6.76862 -5.96522 34941 ft 482 kts 124°
2026-05-09 14:36 6.72970 -5.91019 34939 ft 482 kts 126°
2026-05-09 14:37 6.69014 -5.85565 34937 ft 482 kts 126°
2026-05-09 14:37 6.65059 -5.80107 34940 ft 482 kts 126°
2026-05-09 14:38 6.61139 -5.74687 34935 ft 482 kts 125°
2026-05-09 14:38 6.57189 -5.69220 34935 ft 482 kts 126°
2026-05-09 14:39 6.53235 -5.63751 34938 ft 483 kts 126°
2026-05-09 14:39 6.49280 -5.58282 34935 ft 483 kts 126°
2026-05-09 14:40 6.45326 -5.52816 34934 ft 483 kts 126°
2026-05-09 14:40 6.41369 -5.47357 34937 ft 482 kts 124°
2026-05-09 14:41 6.37428 -5.41902 34934 ft 481 kts 124°
2026-05-09 14:41 6.33484 -5.36443 34934 ft 481 kts 124°
2026-05-09 14:42 6.29543 -5.30996 34937 ft 480 kts 125°
2026-05-09 14:42 6.25639 -5.25606 34934 ft 479 kts 125°
2026-05-09 14:43 6.21714 -5.20190 34932 ft 479 kts 125°
2026-05-09 14:43 6.17782 -5.14764 34931 ft 479 kts 125°
2026-05-09 14:44 6.13855 -5.09348 34930 ft 479 kts 125°
2026-05-09 14:44 6.09928 -5.03935 34929 ft 479 kts 125°
2026-05-09 14:45 6.06001 -4.98523 34930 ft 479 kts 125°
2026-05-09 14:45 6.02021 -4.93031 34927 ft 485 kts 125°
2026-05-09 14:46 5.98146 -4.87696 34929 ft 486 kts 126°
2026-05-09 14:46 5.94181 -4.82240 34930 ft 486 kts 125°
2026-05-09 14:47 5.90190 -4.76746 34922 ft 486 kts 125°
2026-05-09 14:47 5.86198 -4.71252 34928 ft 486 kts 125°
2026-05-09 14:48 5.82179 -4.65722 34927 ft 486 kts 125°
2026-05-09 14:48 5.78189 -4.60233 34926 ft 486 kts 125°
2026-05-09 14:49 5.74195 -4.54746 34930 ft 486 kts 125°
2026-05-09 14:49 5.70203 -4.49257 34929 ft 486 kts 125°
2026-05-09 14:50 5.66208 -4.43766 34927 ft 486 kts 125°
2026-05-09 14:50 5.62895 -4.39211 34929 ft 486 kts 125°
2026-05-09 14:51 5.58892 -4.33710 34929 ft 486 kts 125°
2026-05-09 14:51 5.54905 -4.28233 34929 ft 486 kts 125°
2026-05-09 14:52 5.50913 -4.22751 34932 ft 486 kts 125°
2026-05-09 14:52 5.46924 -4.17275 34931 ft 486 kts 125°
2026-05-09 14:53 5.42929 -4.11793 34930 ft 486 kts 125°
2026-05-09 14:53 5.38939 -4.06317 34928 ft 486 kts 125°
2026-05-09 14:54 5.34951 -4.00846 34928 ft 486 kts 125°
2026-05-09 14:54 5.30968 -3.95329 34928 ft 486 kts 123°
2026-05-09 14:55 5.27433 -3.89563 34928 ft 486 kts 117°
2026-05-09 14:55 5.24475 -3.83488 34928 ft 486 kts 114°
2026-05-09 14:56 5.21664 -3.77341 34928 ft 486 kts 114°
2026-05-09 14:56 5.18870 -3.71240 34928 ft 486 kts 114°
2026-05-09 14:57 5.16049 -3.65099 34928 ft 484 kts 114°
2026-05-09 14:57 5.13225 -3.58960 34928 ft 484 kts 114°
2026-05-09 14:58 5.10402 -3.52825 34928 ft 484 kts 114°
2026-05-09 14:58 5.07571 -3.46677 34928 ft 484 kts 114°
2026-05-09 14:59 5.04744 -3.40538 34928 ft 484 kts 114°
2026-05-09 14:59 5.01917 -3.34401 34928 ft 484 kts 114°
2026-05-09 15:00 4.99089 -3.28263 34928 ft 484 kts 114°
2026-05-09 15:00 4.96262 -3.22129 34928 ft 484 kts 114°
2026-05-09 15:01 4.92018 -3.12924 34928 ft 484 kts 114°
2026-05-09 15:02 4.89188 -3.06788 34928 ft 484 kts 114°
2026-05-09 15:02 4.86362 -3.00663 34928 ft 484 kts 114°
2026-05-09 15:03 4.83545 -2.94494 34928 ft 484 kts 113°
2026-05-09 15:03 4.80755 -2.88345 34928 ft 484 kts 113°
2026-05-09 15:04 4.77963 -2.82196 34928 ft 484 kts 113°
2026-05-09 15:06 4.66740 -2.57513 34928 ft 484 kts 114°
2026-05-09 15:06 4.63943 -2.51365 34928 ft 484 kts 114°
2026-05-09 15:07 4.61145 -2.45220 34928 ft 484 kts 114°
2026-05-09 15:07 4.58344 -2.39067 34928 ft 484 kts 114°
2026-05-09 15:08 4.55543 -2.32917 34928 ft 484 kts 114°
2026-05-09 15:08 4.51340 -2.23691 34928 ft 484 kts 114°
2026-05-09 15:10 4.40136 -1.99109 34928 ft 484 kts 114°
2026-05-09 15:11 4.37378 -1.92947 34928 ft 484 kts 112°
2026-05-09 15:11 4.34677 -1.86757 34928 ft 484 kts 112°
2026-05-09 15:12 4.31974 -1.80576 34928 ft 484 kts 112°
2026-05-09 15:12 4.29282 -1.74438 34928 ft 484 kts 112°
2026-05-09 15:13 4.26572 -1.68262 34928 ft 484 kts 112°
2026-05-09 15:13 4.23849 -1.62081 34928 ft 484 kts 113°
2026-05-09 15:14 4.21105 -1.55919 34928 ft 484 kts 113°
2026-05-09 15:14 4.18357 -1.49749 34928 ft 484 kts 113°
2026-05-09 15:15 4.15579 -1.43505 34928 ft 484 kts 113°
2026-05-09 15:15 4.12821 -1.37306 34928 ft 484 kts 113°
2026-05-09 15:16 4.10078 -1.31141 34928 ft 484 kts 113°
2026-05-09 15:16 4.07323 -1.24951 34928 ft 484 kts 113°
2026-05-09 15:17 4.04546 -1.18712 34928 ft 484 kts 113°
2026-05-09 15:17 4.01802 -1.12548 34928 ft 484 kts 113°
2026-05-09 15:18 3.99048 -1.06393 34928 ft 484 kts 114°
2026-05-09 15:18 3.96224 -1.00260 34928 ft 484 kts 114°
2026-05-09 15:19 3.93385 -0.94110 34928 ft 484 kts 114°
2026-05-09 15:19 3.90553 -0.87964 34928 ft 484 kts 114°
2026-05-09 15:20 3.86322 -0.78773 34928 ft 484 kts 114°
2026-05-09 15:21 3.83503 -0.72649 34928 ft 484 kts 114°
2026-05-09 15:21 3.80677 -0.66511 34928 ft 484 kts 114°
2026-05-09 15:22 3.77857 -0.60386 34928 ft 484 kts 114°
2026-05-09 15:22 3.75026 -0.54241 34928 ft 484 kts 114°
2026-05-09 15:23 3.72204 -0.48116 34928 ft 484 kts 114°
2026-05-09 15:23 3.69396 -0.42021 34928 ft 484 kts 114°
2026-05-09 15:24 3.66570 -0.35889 34928 ft 484 kts 114°
2026-05-09 15:24 3.63718 -0.29702 34928 ft 484 kts 114°
2026-05-09 15:25 3.60897 -0.23583 34928 ft 484 kts 114°
2026-05-09 15:25 3.58071 -0.17454 34928 ft 484 kts 114°
2026-05-09 15:26 3.53830 -0.08260 34928 ft 484 kts 114°
2026-05-09 15:26 3.51005 -0.02138 34928 ft 484 kts 114°
2026-05-09 15:27 3.48130 0.04090 34928 ft 484 kts 114°
2026-05-09 15:27 3.45246 0.10340 34928 ft 484 kts 114°
2026-05-09 15:28 3.42317 0.16683 34928 ft 484 kts 114°
2026-05-09 15:28 3.39419 0.22960 34928 ft 484 kts 114°
2026-05-09 15:29 3.36475 0.29334 34928 ft 484 kts 114°
2026-05-09 15:29 3.33640 0.35470 34928 ft 484 kts 114°
2026-05-09 15:30 3.30810 0.41595 34928 ft 484 kts 114°
2026-05-09 15:30 3.27975 0.47730 34928 ft 484 kts 114°
2026-05-09 15:31 3.25147 0.53849 34928 ft 484 kts 114°
2026-05-09 15:31 3.22312 0.59980 34928 ft 484 kts 114°
2026-05-09 15:32 3.19482 0.66100 34928 ft 484 kts 114°
2026-05-09 15:32 3.16671 0.72178 34928 ft 484 kts 114°
2026-05-09 15:33 3.13835 0.78309 34928 ft 484 kts 114°
2026-05-09 15:33 3.11003 0.84430 34928 ft 484 kts 114°
2026-05-09 15:34 3.08167 0.90559 34928 ft 484 kts 114°
2026-05-09 15:34 3.05334 0.96681 34928 ft 484 kts 114°
2026-05-09 15:35 3.02501 1.02801 34928 ft 484 kts 114°